Location: Barnston
(51.8500°N, 0.4000°E)
Time: 23:42:05
(UTC+00:00)

Cosmos 371 Rocket - Visible Passes

Search period start: 18 April 2024 00:00
Search period end: 28 April 2024 00:00
Orbit: 680 x 694 km, 74.0° (Epoch: 18 April)

Date Brightness Start Highest point End Pass type
(mag) Time Alt. Az. Time Alt. Az. Time Alt. Az.
18 Apr 3.4 20:11:33 10° NNW 20:16:21 78° WSW 20:21:07 10° SSE visible
18 Apr 5.9 21:54:04 10° WNW 21:55:50 12° W 21:57:35 10° WSW visible
19 Apr 4.9 20:51:03 10° NW 20:55:13 30° WSW 20:59:22 10° SSW visible
20 Apr 3.4 19:49:27 10° NNW 19:54:15 77° WSW 19:59:03 10° SSE visible
20 Apr 6.0 21:32:04 10° WNW 21:33:43 12° W 21:35:23 10° WSW visible
21 Apr 5.0 20:28:58 10° NW 20:33:07 30° WSW 20:37:15 10° SSW visible
22 Apr 6.1 21:10:03 10° WNW 21:11:36 11° W 21:13:09 10° WSW visible
23 Apr 5.1 20:06:52 10° NW 20:11:00 29° WSW 20:15:06 10° SSW visible
24 Apr 6.2 20:48:02 10° WNW 20:49:28 11° W 20:50:54 10° WSW visible
25 Apr 5.3 19:44:45 10° NW 19:48:51 29° WSW 19:52:57 10° SSW visible
26 Apr 6.3 20:26:00 10° WNW 20:27:19 11° W 20:28:38 10° WSW visible
